TimeCST,TemperatureF,Dew PointF,Humidity,Sea Level PressureIn,VisibilityMPH,Wind Direction,Wind SpeedMPH,Gust SpeedMPH,PrecipitationIn,Events,Conditions,WindDirDegrees,DateUTC
12:53 AM,26.1,23.0,88,30.18,10.0,West,11.5,-,N/A,,Clear,260,2013-12-17 06:53:00
1:53 AM,26.1,21.9,84,30.17,10.0,West,5.8,-,N/A,,Mostly Cloudy,270,2013-12-17 07:53:00
2:53 AM,27.0,21.9,81,30.20,10.0,West,10.4,-,N/A,,Mostly Cloudy,270,2013-12-17 08:53:00
3:53 AM,28.0,23.0,81,30.20,10.0,WNW,12.7,-,N/A,,Clear,300,2013-12-17 09:53:00
4:53 AM,30.0,21.9,72,30.22,10.0,NW,20.7,-,N/A,,Clear,310,2013-12-17 10:53:00
5:53 AM,30.0,21.0,69,30.25,10.0,NW,20.7,-,N/A,,Clear,320,2013-12-17 11:53:00
6:53 AM,28.9,19.9,69,30.26,10.0,NW,17.3,-,N/A,,Clear,310,2013-12-17 12:53:00
7:53 AM,28.0,19.0,69,30.27,10.0,WNW,20.7,-,N/A,,Clear,300,2013-12-17 13:53:00
8:53 AM,28.0,19.0,69,30.30,10.0,WNW,12.7,23.0,N/A,,Clear,290,2013-12-17 14:53:00
9:53 AM,28.0,19.0,69,30.30,10.0,West,9.2,-,N/A,,Clear,260,2013-12-17 15:53:00
10:53 AM,28.9,19.0,67,30.31,10.0,West,9.2,-,N/A,,Clear,260,2013-12-17 16:53:00
11:53 AM,30.9,19.9,64,30.29,10.0,West,11.5,-,N/A,,Clear,260,2013-12-17 17:53:00
12:53 PM,32.0,21.0,64,30.26,10.0,NW,4.6,-,N/A,,Clear,310,2013-12-17 18:53:00
1:53 PM,33.1,19.9,59,30.20,10.0,Calm,Calm,-,N/A,,Clear,0,2013-12-17 19:53:00
2:53 PM,34.0,19.9,56,30.17,10.0,South,6.9,-,N/A,,Clear,180,2013-12-17 20:53:00
3:53 PM,34.0,19.9,56,30.14,10.0,South,5.8,-,N/A,,Clear,180,2013-12-17 21:53:00
4:53 PM,30.9,21.0,67,30.10,10.0,SSE,8.1,-,N/A,,Clear,150,2013-12-17 22:53:00
5:53 PM,28.0,19.9,72,30.06,10.0,SE,10.4,-,N/A,,Clear,140,2013-12-17 23:53:00
6:53 PM,28.0,19.0,69,30.02,10.0,SSE,11.5,-,N/A,,Clear,150,2013-12-18 00:53:00
7:53 PM,30.0,19.9,66,29.98,10.0,SE,11.5,-,N/A,,Clear,130,2013-12-18 01:53:00
8:53 PM,28.9,21.0,72,29.95,10.0,SE,10.4,-,N/A,,Clear,140,2013-12-18 02:53:00
9:53 PM,26.1,19.9,78,29.91,10.0,SE,9.2,-,N/A,,Clear,140,2013-12-18 03:53:00
10:53 PM,26.1,19.9,78,29.88,10.0,SE,8.1,-,N/A,,Clear,130,2013-12-18 04:53:00
11:53 PM,24.1,19.0,81,29.84,10.0,SE,6.9,-,N/A,,Clear,140,2013-12-18 05:53:00